Weather History for Stuart, FL

Change the Weather History Date:

Thursday, January 23, 2014

  Actual Average Record
Temperature  
Mean Temperature 52 °F -  
Max Temperature 64 °F 74 °F 87 °F (1953)
Min Temperature 41 °F 54 °F 33 °F (1961)
Degree Days  
Heating Degree Days 12    
Growing Degree Days 2 (Base 50)    
Moisture  
Dew Point 36 °F    
Average Humidity 58    
Maximum Humidity 77    
Minimum Humidity 34    
Precipitation  
Precipitation 0.00 in - - ()
Sea Level Pressure  
Sea Level Pressure 30.26 in    
Wind  
Wind Speed 7 mph (NNW)    
Max Wind Speed 15 mph    
Max Gust Speed 18 mph    
Visibility 10 miles    
Events      
Averages and records for this station are not official NWS values.
T = Trace of Precipitation, MM = Missing Value Source: NWS Daily Summary

Daily Weather History Graph

Daily Weather History Graph

Search for Another Location

Airport:

Trip Planner

Search our weather history database for the weather conditions in past years. The results will help you decide how hot, cold, wet, or windy it might be!

Date:

Astronomy

Jan. 23, 2014 Rise Set
Actual Time 7:10 AM EST 5:55 PM EST
Civil Twilight 6:45 AM EST 6:20 PM EST
Nautical Twilight 6:17 AM EST 6:48 PM EST
Astronomical Twilight 5:49 AM EST 7:16 PM EST
Moon No Moon Rise 11:25 AM EST (1/23)
Length of Visible Light 11h 34m
Length of Day
10h 45m
Waning Gibbous, 55% of the Moon is Illuminated
Jan 23
Waning Gibbous
Jan 24
Last Quarter
Jan 30
New
Feb 6
First Quarter
Feb 14
Full

Hourly Weather History & Observations

Time (EST) Temp. Windchill Dew Point Humidity Pressure Visibility Wind Dir Wind Speed Gust Speed Precip Events Conditions
12:15 AM 48.2 °F - 21.2 °F 34% 30.19 in 10.0 mi NW 8.1 mph - N/A   Clear
12:35 AM 46.4 °F 43.5 °F 21.2 °F 37% 30.19 in 10.0 mi NW 5.8 mph - N/A   Clear
12:55 AM 46.4 °F 43.5 °F 21.2 °F 37% 30.19 in 10.0 mi NW 5.8 mph - N/A   Clear
1:15 AM 46.4 °F 42.9 °F 23.0 °F 40% 30.20 in 10.0 mi NW 6.9 mph - N/A   Clear
1:35 AM 46.4 °F 42.4 °F 23.0 °F 40% 30.20 in 10.0 mi NW 8.1 mph - N/A   Clear
1:55 AM 44.6 °F 40.7 °F 24.8 °F 46% 30.19 in 10.0 mi NW 6.9 mph - N/A   Clear
2:15 AM 44.6 °F 40.2 °F 26.6 °F 49% 30.19 in 10.0 mi NNW 8.1 mph - N/A   Clear
2:35 AM 44.6 °F 40.7 °F 28.4 °F 53% 30.19 in 10.0 mi NW 6.9 mph - N/A   Clear
2:55 AM 42.8 °F 38.6 °F 28.4 °F 57% 30.20 in 10.0 mi NW 6.9 mph - N/A   Clear
3:15 AM 42.8 °F 38.0 °F 28.4 °F 57% 30.20 in 10.0 mi NW 8.1 mph - N/A   Clear
3:35 AM 42.8 °F 39.3 °F 28.4 °F 57% 30.21 in 10.0 mi NW 5.8 mph - N/A   Clear
3:55 AM 42.8 °F 40.1 °F 28.4 °F 57% 30.21 in 10.0 mi NW 4.6 mph - N/A   Clear
4:15 AM 42.8 °F 40.1 °F 28.4 °F 57% 30.21 in 10.0 mi NW 4.6 mph - N/A   Clear
4:35 AM 41.0 °F 38.0 °F 28.4 °F 61% 30.21 in 10.0 mi NW 4.6 mph - N/A   Clear
4:55 AM 41.0 °F 38.0 °F 30.2 °F 65% 30.22 in 10.0 mi NW 4.6 mph - N/A   Clear
5:15 AM 41.0 °F 39.0 °F 32.0 °F 70% 30.23 in 10.0 mi NW 3.5 mph - N/A   Clear
5:35 AM 41.0 °F 39.0 °F 32.0 °F 70% 30.24 in 10.0 mi NW 3.5 mph - N/A   Clear
5:55 AM 41.0 °F 37.1 °F 32.0 °F 70% 30.24 in 10.0 mi NW 5.8 mph - N/A   Clear
6:15 AM 41.0 °F 37.1 °F 32.0 °F 70% 30.25 in 10.0 mi NW 5.8 mph - N/A   Clear
6:47 AM 42.8 °F 38.6 °F - N/A% 30.26 in 10.0 mi NW 6.9 mph - N/A   Partly Cloudy
7:50 AM 44.6 °F 40.7 °F 35.6 °F 71% 30.27 in 10.0 mi NNW 6.9 mph - N/A   Partly Cloudy
8:47 AM 50.0 °F - 37.4 °F 62% 30.28 in 10.0 mi NNW 9.2 mph - N/A   Partly Cloudy
9:47 AM 57.2 °F - 33.8 °F 41% 30.30 in 10.0 mi NNW 6.9 mph - N/A   Partly Cloudy
10:47 AM 60.8 °F - 35.6 °F 39% 30.32 in 10.0 mi NNW 8.1 mph - N/A   Partly Cloudy
11:47 AM 60.8 °F - 41.0 °F 48% 30.31 in 10.0 mi North 10.4 mph - N/A   Partly Cloudy
12:47 PM 62.6 °F - 41.0 °F 45% 30.26 in 10.0 mi North 15.0 mph - N/A   Partly Cloudy
1:47 PM 64.4 °F - 42.8 °F 45% 30.25 in 10.0 mi North 13.8 mph - N/A   Partly Cloudy
2:47 PM 64.4 °F - 44.6 °F 49% 30.26 in 10.0 mi North 10.4 mph - N/A   Partly Cloudy
3:47 PM 62.6 °F - 44.6 °F 52% 30.25 in 10.0 mi North 13.8 mph 18.4 mph N/A   Partly Cloudy
5:47 PM 60.8 °F - 44.6 °F 55% 30.28 in 10.0 mi North 8.1 mph - N/A   Partly Cloudy
6:47 PM 59.0 °F - 46.4 °F 63% 30.28 in 10.0 mi North 5.8 mph - N/A   Scattered Clouds
8:15 PM 55.4 °F - 46.4 °F 72% 30.31 in 10.0 mi NNW 4.6 mph - N/A   Clear
8:35 PM 55.4 °F - 46.4 °F 72% 30.31 in 10.0 mi NNW 5.8 mph - N/A   Clear
8:55 PM 55.4 °F - 46.4 °F 72% 30.32 in 10.0 mi NNW 5.8 mph - N/A   Clear
9:35 PM 55.4 °F - 46.4 °F 72% 30.32 in 10.0 mi NNW 6.9 mph - N/A   Clear
9:55 PM 55.4 °F - 46.4 °F 72% 30.32 in 10.0 mi NNW 5.8 mph - N/A   Clear
10:15 PM 55.4 °F - 46.4 °F 72% 30.33 in 10.0 mi NNW 6.9 mph - N/A   Clear
10:55 PM 55.4 °F - 48.2 °F 77% 30.33 in 10.0 mi NW 4.6 mph - N/A   Clear
11:15 PM 55.4 °F - 48.2 °F 77% 30.33 in 10.0 mi NW 5.8 mph - N/A   Clear
11:35 PM 55.4 °F - 48.2 °F 77% 30.32 in 10.0 mi NNW 4.6 mph - N/A   Clear
11:55 PM 55.4 °F - 48.2 °F 77% 30.32 in 10.0 mi NNW 5.8 mph - N/A   Clear